Theta_e
350 358 363 363 361 361 360 359 358 358 357 357 355 354 355 353 353 352 350 351 352 351 352 355 355 355 353 352 352 351 350 351 349 349 347 348 348 350 350 350 352 347 352
350 356 364 365 361 360 358 358 357 356 357 357 356 356 356 355 354 353 351 350 351 349 354 354 355 353 352 351 351 351 350 349 348 349 351 349 346 348 349 350 351 348 351
348 354 359 365 363 360 358 357 358 357 359 357 355 357 357 356 355 353 351 350 349 349 353 354 354 353 351 350 349 348 349 349 349 351 352 340 340 346 348 350 350 350 351
348 354 356 365 364 363 360 358 359 357 360 356 356 357 357 355 355 354 351 350 349 352 353 353 352 351 350 349 348 347 348 347 348 352 340 339 337 342 346 346 348 348 350
347 352 357 364 364 363 361 360 358 357 358 357 356 357 356 356 355 354 351 350 350 352 353 352 352 350 349 349 348 348 347 346 348 345 341 340 341 339 342 343 344 346 348
347 351 360 364 362 361 358 359 360 359 358 356 355 355 356 355 355 354 352 350 350 352 352 351 350 349 348 348 348 347 346 346 350 341 339 339 338 343 343 343 341 344 345
347 349 356 361 360 358 357 358 356 360 358 356 353 353 355 355 355 354 353 350 350 351 351 351 349 348 347 346 346 345 345 346 341 340 337 338 339 340 341 343 341 340 343
346 348 352 358 359 359 359 359 356 356 357 355 353 352 355 354 355 354 353 351 349 351 350 349 350 348 347 346 345 344 344 346 340 337 337 337 342 341 342 340 342 342 341
347 347 350 352 355 359 359 358 356 355 355 354 352 353 353 353 354 354 353 352 350 349 350 348 347 348 347 345 344 343 341 345 339 336 334 334 343 343 342 343 342 342 343
347 347 347 349 348 349 351 356 356 355 354 353 353 353 353 353 353 352 353 352 351 349 348 347 347 349 346 345 344 341 341 344 338 337 336 338 343 342 341 340 340 340 341
347 347 347 345 346 347 348 351 355 355 354 354 352 352 351 348 351 351 351 352 350 350 348 345 346 348 347 345 343 341 342 338 337 335 335 342 341 340 340 341 341 340 340
346 347 347 345 345 347 346 350 350 348 348 347 346 345 343 342 348 349 350 351 350 349 348 346 344 347 347 342 342 340 339 338 337 335 334 341 340 340 339 340 339 339 339
346 348 347 345 346 347 347 348 351 348 347 346 346 346 344 341 346 347 349 347 347 349 347 345 342 340 339 340 340 338 338 336 336 334 336 341 339 338 338 337 337 337 337
339 346 348 346 346 347 350 348 350 348 353 349 350 350 345 348 346 344 347 346 349 348 347 345 348 340 337 337 337 336 335 336 335 334 336 339 338 337 338 337 337 337 336
328 344 348 348 347 348 349 350 351 348 348 348 351 350 350 346 345 344 345 346 347 348 345 347 347 341 337 333 335 335 333 333 334 335 335 339 337 336 337 337 337 336 336
323 335 346 347 349 350 349 351 351 351 347 345 347 348 348 346 344 342 342 344 345 348 351 348 339 339 335 334 335 335 334 334 336 335 336 335 337 337 336 336 336 336 334
319 324 339 346 350 351 351 351 354 351 349 344 344 344 343 345 343 341 341 344 349 349 346 342 341 342 341 337 334 333 333 333 335 335 336 337 335 337 334 335 335 335 334
319 318 320 326 341 348 350 352 351 351 350 346 343 343 343 344 345 345 344 343 345 342 339 344 344 341 337 333 331 333 332 333 333 334 336 336 338 335 335 334 334 334 333
325 322 319 321 321 331 349 352 351 351 350 348 344 342 343 344 344 346 342 341 345 344 342 342 340 335 332 332 332 332 332 333 333 334 334 335 336 336 338 334 334 334 332
327 327 326 321 322 328 345 350 352 350 348 348 346 343 343 344 344 343 343 343 343 340 339 339 334 335 332 331 329 330 331 332 333 334 333 335 334 335 336 334 331 331 332
325 326 327 327 321 329 338 342 345 344 346 347 347 345 344 344 343 342 339 338 339 338 336 336 334 332 331 332 329 327 328 329 330 330 332 332 332 333 333 333 333 335 330
322 324 326 327 328 323 335 340 346 348 345 346 348 345 345 342 343 340 337 337 336 338 335 334 333 330 330 331 325 325 319 324 327 328 330 330 330 331 331 330 332 331 329
320 323 324 326 329 327 323 341 346 347 343 343 342 343 343 342 342 339 338 337 337 338 334 334 334 331 327 329 329 323 318 315 322 326 327 328 329 332 332 331 330 329 328
317 321 324 325 326 329 322 331 341 341 337 340 343 343 343 341 341 341 339 338 337 338 335 335 334 332 331 324 327 327 325 322 319 315 322 325 328 328 329 330 328 327 326
315 317 322 326 325 327 325 327 341 339 342 344 342 342 342 343 342 342 339 338 337 336 336 334 332 330 330 327 325 324 323 322 322 318 316 319 322 326 327 326 326 327 325
311 315 320 324 323 325 330 331 339 338 337 337 335 337 340 341 341 341 339 338 336 335 333 332 331 331 331 328 326 325 323 321 320 318 319 319 318 323 323 321 320 322 324
Wind_Speed
9 16 14 14 14 13 12 11 9 8 8 9 8 7 6 8 8 8 8 7 9 8 9 9 11 11 12 12 12 13 13 13 10 8 11 17 18 19 19 19 21 19 23
12 17 13 15 15 13 12 11 9 9 9 10 9 8 9 8 8 7 7 7 8 7 9 10 10 12 11 12 12 12 12 10 9 11 4 12 17 18 19 18 19 19 22
13 16 16 13 15 15 13 11 10 9 9 10 9 7 10 9 8 9 7 7 6 6 7 9 11 11 11 11 11 11 12 8 9 11 9 11 15 19 20 17 19 22 21
13 15 15 14 14 14 14 11 11 9 11 10 10 9 9 9 9 9 9 8 7 6 7 10 10 10 10 11 11 11 9 8 10 11 12 14 13 17 20 20 20 21 22
12 13 13 14 11 12 11 11 10 9 10 9 9 7 7 8 8 8 8 8 7 7 7 9 9 9 10 10 10 10 7 8 12 14 12 11 10 14 18 18 19 20 22
13 12 18 15 13 11 10 9 11 10 12 10 9 7 8 7 8 8 7 7 7 7 7 7 8 9 9 10 10 9 7 10 10 14 9 10 12 17 16 18 18 20 21
12 11 13 13 11 10 10 9 8 10 11 9 7 7 6 8 8 8 8 7 6 6 6 7 8 8 8 8 8 7 7 13 9 12 8 10 10 16 17 18 18 18 20
11 11 14 12 10 10 9 12 10 8 9 8 5 5 4 7 8 8 8 7 6 6 6 4 5 7 7 7 7 6 8 11 8 10 11 10 12 14 16 16 16 18 18
7 8 11 12 11 9 9 11 10 9 8 7 7 6 5 5 6 8 8 9 7 6 6 4 3 6 6 6 5 5 5 9 8 9 11 8 12 13 16 15 17 19 20
7 9 8 11 12 12 11 9 9 9 9 8 8 7 6 5 6 6 9 9 8 7 7 5 4 5 6 5 4 1 5 10 8 9 9 7 13 15 16 16 17 17 19
7 10 10 11 11 11 10 11 8 8 8 8 8 8 7 8 10 10 10 10 8 8 8 7 6 5 6 5 3 3 8 4 5 8 6 9 11 14 14 16 16 18 18
10 10 10 11 11 11 9 10 10 9 9 9 10 10 9 11 7 6 6 10 10 8 7 8 6 6 9 5 5 6 5 2 4 7 6 8 11 13 13 14 16 17 18
11 9 11 10 10 10 9 8 6 6 7 8 10 9 8 7 8 8 5 6 8 9 7 8 8 7 9 3 4 1 3 3 3 6 7 7 10 11 11 12 13 15 17
13 12 11 12 12 12 7 7 4 5 3 6 6 6 7 2 3 3 5 7 5 5 7 5 4 5 5 5 4 3 4 3 2 6 7 6 8 9 9 11 12 15 15
12 14 12 12 12 11 12 9 9 10 9 10 7 7 6 4 3 2 6 7 5 6 7 7 5 0 2 7 4 4 3 3 2 6 5 6 6 6 8 11 12 13 14
13 12 14 16 14 13 13 12 9 8 8 8 8 10 13 7 5 5 5 5 6 7 4 3 4 5 7 4 2 4 4 3 2 8 3 6 5 7 6 8 10 12 13
11 11 15 13 13 14 14 13 8 9 9 8 8 11 9 9 8 6 4 6 5 3 5 5 8 6 4 4 5 5 2 2 2 4 6 4 7 7 4 7 9 10 12
12 13 13 10 13 17 16 13 10 11 8 8 9 7 11 10 11 5 4 5 3 1 4 4 4 5 8 4 3 2 3 2 1 3 2 4 2 4 6 5 7 9 11
11 12 14 13 14 17 17 13 14 14 10 9 9 8 10 9 10 6 6 5 6 4 7 5 6 5 3 2 2 1 3 2 2 2 3 4 4 4 3 6 5 8 9
13 12 12 12 16 16 12 12 9 9 7 8 8 8 8 8 8 8 7 8 7 4 3 4 5 2 2 3 2 3 4 3 3 2 3 2 2 2 4 6 6 6 6
13 15 14 13 14 12 9 10 12 11 10 8 8 11 9 9 10 10 7 7 8 8 5 5 5 5 3 5 4 3 2 3 3 3 2 1 2 1 3 5 4 3 5
15 16 16 15 13 12 10 10 10 11 11 9 7 10 12 12 11 10 8 7 7 8 6 6 5 3 3 4 4 3 3 4 4 1 1 2 2 3 2 2 4 6 3
16 16 16 17 16 13 15 10 7 8 8 11 10 9 11 13 12 11 10 9 8 8 7 6 5 6 4 4 6 3 2 2 4 2 2 1 4 0 2 2 5 5 5
16 15 16 15 16 14 13 14 14 11 11 9 11 10 10 14 13 12 12 10 9 5 6 6 5 5 5 5 3 4 4 3 1 2 2 3 2 1 3 2 3 3 3
16 17 17 15 14 20 10 14 9 12 9 8 9 13 13 11 13 12 12 11 10 7 8 8 5 7 3 4 5 3 4 2 2 2 2 3 2 2 4 2 2 2 1
14 15 16 17 12 15 19 11 11 12 11 9 10 12 10 9 8 10 9 9 8 7 5 4 5 4 3 3 2 2 1 2 2 1 1 2 3 4 7 7 7 4 1
Wind_Direction
152 146 166 159 152 144 138 148 156 138 121 123 132 141 128 116 110 106 96 87 74 74 53 66 78 76 70 64 61 58 51 45 30 39 63 58 21 27 24 25 10 26 24
158 153 163 163 157 155 153 158 162 161 157 146 148 158 143 134 118 98 89 76 69 68 56 66 77 75 70 62 59 56 57 42 14 349 330 90 43 25 21 25 24 22 26
168 155 165 164 161 164 164 169 171 172 169 151 154 149 147 139 134 117 104 90 88 72 68 75 76 73 64 60 57 53 50 30 357 328 337 23 64 20 23 23 24 24 25
169 154 171 165 169 169 165 174 166 174 169 155 157 162 155 152 147 138 129 122 117 88 86 86 82 74 66 60 55 54 46 14 338 319 41 19 30 25 30 21 22 26 21
169 160 156 159 158 159 165 168 176 176 166 164 162 155 159 160 160 151 140 135 132 113 107 104 94 83 74 67 63 59 30 344 319 42 50 30 21 29 25 29 23 24 25
165 168 130 147 160 163 173 183 198 180 178 170 170 173 177 171 168 168 152 144 141 124 105 101 98 86 79 71 64 51 12 333 317 68 41 41 37 31 37 32 30 26 25
167 164 143 149 165 173 178 173 174 186 171 167 183 184 196 178 180 174 163 154 153 140 125 124 114 101 88 79 68 47 359 335 3 77 60 41 39 31 32 34 28 30 26
167 172 147 156 176 191 198 182 168 163 158 164 191 199 232 183 181 183 173 167 172 155 136 119 121 112 98 83 73 44 1 331 43 52 70 59 32 37 43 33 31 38 34
169 178 158 175 182 196 182 179 182 184 184 187 196 205 224 220 205 189 182 178 178 168 148 144 132 132 118 102 83 55 342 327 23 57 48 46 28 51 44 41 41 37 39
179 183 185 178 183 195 194 191 190 199 199 200 206 213 217 238 211 211 188 197 181 177 172 166 170 170 136 120 103 63 295 296 38 65 61 39 46 50 44 38 38 41 41
194 191 193 193 188 199 200 177 192 197 200 207 209 209 213 227 186 185 203 165 191 192 182 180 181 167 152 132 119 270 280 43 56 74 62 28 47 50 45 43 46 47 47
207 206 207 199 196 190 198 169 201 199 214 214 210 200 216 220 161 174 180 164 192 194 192 187 190 188 211 186 161 235 249 72 64 92 68 46 54 57 52 48 50 48 52
213 209 211 202 206 200 210 193 182 202 198 210 222 214 203 242 156 179 174 187 197 192 198 189 185 212 218 197 180 169 326 42 93 84 78 61 62 58 64 60 54 53 53
201 200 207 212 201 206 212 192 188 205 222 248 179 240 237 299 281 130 177 226 177 181 204 198 236 237 213 232 184 222 207 80 11 105 97 66 67 61 67 65 66 64 58
270 183 201 210 219 211 212 199 213 194 193 223 170 212 241 236 250 180 195 220 177 200 212 195 207 17 253 235 230 235 227 144 72 100 109 83 73 67 75 72 74 70 67
270 254 191 204 210 211 225 204 204 246 207 206 174 204 207 218 242 254 199 210 217 214 218 176 123 191 222 224 230 262 279 113 198 103 122 128 88 82 80 81 80 83 75
297 290 215 192 208 211 221 234 194 215 224 204 212 205 228 196 229 239 214 210 231 236 207 177 188 212 316 233 235 222 81 102 282 135 121 154 135 109 81 93 94 89 87
305 287 283 273 227 211 216 220 211 218 204 219 210 208 201 210 221 239 245 240 208 304 248 175 164 190 219 200 214 29 242 230 49 279 101 132 142 146 121 119 116 106 99
320 307 295 280 258 245 221 216 212 220 196 203 217 201 199 201 214 203 211 222 199 179 172 181 174 196 172 142 314 269 316 26 315 249 245 209 150 163 142 124 116 108 117
329 317 307 294 281 261 216 209 228 234 216 203 203 202 186 198 199 195 199 191 161 115 135 180 153 145 160 140 121 329 22 345 359 260 284 38 251 201 149 154 156 124 123
347 336 328 312 291 279 231 223 205 208 204 220 197 194 183 193 188 208 196 174 176 133 173 171 133 157 162 124 146 194 199 285 237 261 240 307 333 16 178 175 163 133 139
360 348 327 317 299 280 262 229 214 202 200 196 198 179 185 187 176 195 180 172 174 135 155 178 167 160 137 227 229 265 234 180 207 32 347 11 338 310 227 132 168 135 116
360 357 340 325 310 278 273 243 227 221 219 192 183 186 179 175 179 182 177 172 179 157 158 190 171 182 175 245 239 277 283 335 125 104 34 303 258 258 232 231 116 122 105
356 354 349 337 327 294 251 259 208 215 215 194 187 183 170 177 175 177 180 171 165 148 180 176 193 206 207 184 258 245 270 311 312 146 200 219 235 17 50 144 125 85 94
351 346 342 347 354 341 263 256 212 220 219 197 189 183 168 169 169 178 181 174 148 166 199 178 196 212 208 169 219 186 218 198 288 304 169 158 123 113 82 159 141 155 147
355 341 335 344 356 349 340 263 225 209 225 230 199 191 173 158 160 168 181 166 161 177 167 153 195 196 185 181 186 152 231 333 66 354 298 114 102 66 48 43 28 6 272